Hovedside
METAR-TAF:

METAR-TAF

Lufthavner :

Richland, Washington, USA

breddegrad: 46-18-20N, lengdegrad: 119-18-15W, høyde over havet: 120 m

Gjeldene værobservasjon

Denne rapporten ble laget for 19 minutter siden, klokken 17:15 UTC
Flau vind
Temperatur 2°C
Luftfuktighet 75%
Trykk 1038 hPa
Sikt: 16.1 km
Skyfri himmel

METAR: KRLD 251715Z AUTO 00000KT 10SM CLR 02/M02 A3065 RMK AO2 T00231016

Tid: 09:34 (17:34 UTC)


TAF: fraværende

Værobservasjoner og værvarsel for over 4000 flyplasser (METAR- og TAF-rapporter).

Tilgjengelige stasjoner er representert av de røde og gule prikkene på kartet.

Hold musepekeren over prikken for å se navnet på stasjonen.

Klikk så for å se værobservasjoner og -varsler.

For å forandre kartet kan du klikke på den grønne knappen med svart kryss for å zoome inn, på den grønne knappen med strek for å zoome ut, eller på de grønne pilene for å se tilstøtende kart.


METAR-TAF: